Location: ?
(35.4554°N, 139.3092°E)
Time: 22:13:23
(UTC+00:00)

Cosmos 1727 Rocket - Pass Details

Date: 21 April 2021
Orbit: 962 x 995 km, 82.9° (Epoch: 10 May)

Event Time Altitude Azimuth Distance (km) Brightness Sun altitude
Exits shadow 18:43:38 18° 212° (SSW) 2,195 5.3 -15.6°
Maximum altitude 18:48:07 48° 280° (W) 1,253 4.3 -14.8°
Drops below altitude 10° 18:54:09 10° 354° (N) 2,740 6.6 -13.7°
Sets 18:56:48 0° 0° (N) 3,697 7.4 -13.2°
